User: anonymous   Login
Location: Fort Wayne
(41.1310°N, 85.1290°W)
Time: 06:59:39
(UTC-04:00)
Language:

Helios 1B - Orbit

View from above orbital plane
View from above orbital plane
View from above satellite
View from above satellite

Ground track
Ground track

The orbit data is extracted from the following two-line orbital elements,

1 25977U 99064A   17290.74911032  .00000083  00000-0  17371-4 0  9998
2 25977  98.1615  44.5859 0000546 161.2051 198.9182 14.82302811962160
Epoch (UTC): 17 October 2017 17:58:43
Eccentricity: 0.0000546
inclination: 98.1615°
perigee height: 621 km
apogee height: 622 km
right ascension of ascending node: 44.5859°
argument of perigee: 161.2051°
revolutions per day: 14.82302811
mean anomaly at epoch: 198.9182°
orbit number at epoch: 96216

The dashed part of the orbit path shows where the satellite is in the earth's shadow,  

DLR